This demonstration page uses our WeatherBlox Daily Observations layout. Learn more.

Left ArrowRight Arrow

Hourly Observations for October 11, 2015

Temp ( °F °C ) Dew Point ( °F °C ) Humidity (%) Winds ( mph kmh ) Pressure ( in mb ) Visibility ( mi km ) Precip ( " mm )
12:53 am 00:53 Clear 41 5 39 3.9 93 93 Calm 30.07 1018 7 11 0.00 0.00
1:53 am 01:53 Clear 41 5 39 3.9 93 93 Calm 30.06 1018 8 13 0.00 0.00
2:53 am 02:53 Clear 40 4.4 38 3.3 93 93 Calm 30.05 1018 9 14 0.00 0.00
3:53 am 03:53 Clear with Mist and Fog 39 3.9 38 3.3 96 96 Calm 30.04 1017 3 5 0.00 0.00
4:10 am 04:10 Mostly Clear with Mist and Fog 39 3.9 38 3.3 96 96 Calm 30.06 1018 3 4 0.00 0.00
4:13 am 04:13 Partly Cloudy with Mist and Fog 39 3.9 38 3.3 96 96 Calm 30.06 1018 2 2 0.00 0.00
4:18 am 04:18 Mostly Cloudy with Mist and Fog 39 3.9 38 3.3 96 96 Calm 30.06 1018 2 3 0.00 0.00
4:27 am 04:27 Mostly Cloudy with Mist and Fog 38 3.3 38 3.3 100 100 Calm 30.06 1018 1 1 0.00 0.00
4:50 am 04:50 Mostly Clear with Mist and Fog 39 4 37 3 93 93 Calm 30.06 1018 1 2 0.00 0.00
4:53 am 04:53 Mostly Clear with Mist and Fog 39 3.9 38 3.3 96 96 Calm 30.04 1017 4 6 0.00 0.00
5:53 am 05:53 Clear 38 3.3 37 2.8 97 97 Calm 30.04 1017 8 13 0.00 0.00
6:53 am 06:53 Clear 37 2.8 36 2.2 96 96 Calm 30.04 1017 7 11 0.00 0.00
7:28 am 07:28 Partly Cloudy 37 2.8 36 2.2 96 96 Calm 30.06 1018 10 16 0.00 0.00
7:53 am 07:53 Partly Cloudy with Mist and Fog 37 2.8 36 2.2 96 96 Calm 30.05 1018 6 10 0.00 0.00
8:53 am 08:53 Sunny with Mist and Fog 43 6.1 42 5.6 97 97 Calm 30.06 1018 6 10 0.00 0.00
9:53 am 09:53 Sunny with Mist and Fog 50 10 47 8.3 89 89 Calm 30.06 1018 6 10 0.00 0.00
10:53 am 10:53 Sunny 60 15.6 48 8.9 65 65 VRB 6 9 30.04 1017 10 16 0.00 0.00
11:53 am 11:53 Sunny 66 18.9 48 8.9 52 52 W 6 9 30.02 1017 10 16 0.00 0.00
12:53 pm 12:53 Sunny 69 20.6 46 7.8 44 44 VRB 7 11 30.01 1016 10 16 0.00 0.00
1:53 pm 13:53 Sunny 71 21.7 47 8.3 42 42 SW 7 11 29.97 1015 10 16 0.00 0.00
2:53 pm 14:53 Sunny 74 23.3 45 7.2 36 36 WSW 7 11 29.94 1014 10 16 0.00 0.00
3:53 pm 15:53 Sunny 74 23.3 47 8.3 38 38 VRB 6 9 29.90 1013 10 16 0.00 0.00
4:53 pm 16:53 Sunny 74 23.3 44 6.7 34 34 S 9 15 29.89 1012 10 16 0.00 0.00
5:53 pm 17:53 Sunny 73 22.8 46 7.8 38 38 SSW 8 13 29.87 1012 10 16 0.00 0.00
6:53 pm 18:53 Sunny 67 19.4 47 8.3 49 49 SW 3 6 29.86 1011 10 16 0.00 0.00
7:53 pm 19:53 Clear 56 13.3 47 8.3 72 72 Calm 29.88 1012 10 16 0.00 0.00
8:53 pm 20:53 Clear 52 11.1 47 8.3 83 83 S 3 6 29.87 1012 10 16 0.00 0.00
9:53 pm 21:53 Clear 56 13.3 46 7.8 70 70 SSW 3 6 29.87 1012 10 16 0.00 0.00
10:53 pm 22:53 Clear 51 10.6 45 7.2 80 80 Calm 29.87 1012 10 16 0.00 0.00
11:53 pm 23:53 Clear 49 9.4 46 7.8 90 90 Calm 29.87 1011 10 16 0.00 0.00

Powered by AerisWeather